Miscellaneous Local Product
Issued by NWS North Platte, NE

Home | Current Version | Previous Version | Graphics & Text | Print | Product List | Glossary On
Versions: 1 2 3 4 5 6 7 8 9 10 11 12 13 14 15 16 17 18 19 20 21 22 23 24 25 26 27 28 29 30 31 32 33 34 35 36 37 38 39 40 41 42 43 44 45 46 47 48 49 50
000
AXUS43 KLBF 180010
MISLBF


WESTERN AND NORTH CENTRAL NEBRASKA HOURLY WEATHER ROUNDUP
NATIONAL WEATHER SERVICE NORTH PLATTE NE
700 PM CDT WED SEP 17 2014

***STATIONS NOT REPORTING VARIABLES SUCH AS SKY/WEATHER OR
PRESSURE ARE PROVIDED BY THE NEBRASKA DEPARTMENT OF
ROADS...RAWS...AND APRS NETWORKS...AND ARE NOT UNDER
NATIONAL WEATHER SERVICE QUALITY CONTROL***

...OBSERVATIONS IN AND NEAR THE EASTERN PANHANDLE OF NEBRASKA...

CITY           SKY/WX    TMP DP  RH WIND       PRES   REMARKS
PINE RIDGE     PTCLDY    79  51  37 E9        29.91F
CHADRON        MOCLDY    81  54  39 SE7       29.88F
ALLIANCE       PTCLDY    82  47  29 E6        29.92F
SIDNEY         PTSUNNY   81  46  29 NE8       29.97R
WHITECLAY        N/A     81  50  34 E6          N/A
RUSHVILLE        N/A     83  41  22 E17         N/A
LISCO            N/A     85  50  29 E7          N/A
BIG SPRINGS      N/A     86  57  37 CALM        N/A
$$

...OBSERVATIONS IN NORTH CENTRAL NEBRASKA...

CITY           SKY/WX    TMP DP  RH WIND       PRES   REMARKS
VALENTINE      MOCLDY    75  55  49 E14       29.93S
THEDFORD       CLEAR     80  54  41 NE9       29.91S
AINSWORTH      HAZE      71  57  61 E5        29.95R VSB 3/4
O`NEILL        MOCLDY    73  62  69 E5        29.93R
ORD            PTCLDY    77  61  57 SE6       29.90R
BROKEN BOW     CLEAR     78  60  53 SE9       29.91S
SPRINGVIEW       N/A     74  60  60 E3          N/A
ROSE             N/A     77  62  58 NE9         N/A
NEWPORT          N/A     72  63  73 E7          N/A
COMSTOCK         N/A     82  66  58 CALM        N/A
CHAMBERS         N/A     76  56  49 E3          N/A
$$

...OBSERVATIONS IN SOUTHWEST NEBRASKA AND FAR NORTHEAST COLORADO...

CITY           SKY/WX    TMP DP  RH WIND       PRES   REMARKS
WRAY           FAIR      84  47  27 E5        29.90F
HOLYOKE        FAIR      84  50  30 E7        29.92S
IMPERIAL       PTCLDY    84  58  40 E9        29.90R
OGALLALA       PTCLDY    83  58  42 E5        29.89S
NORTH PLATTE   CLEAR     74  62  66 E8        29.90R
MCCOOK         CLEAR     80  61  52 E12       29.88S
LEXINGTON      CLEAR     78  64  60 SE8       29.90S
PAXTON           N/A     85  60  43 SE3         N/A
SUTHERLAND       N/A     82  55  40 SE9         N/A
BRADY            N/A     79  61  54 N3          N/A
GOTHENBURG       N/A     81  57  43 E8          N/A
CALLAWAY         N/A     81  64  56 SE9         N/A
$$

...SOME WEATHER OBSERVATIONS FROM AROUND THE REGION...

CITY           SKY/WX    TMP DP  RH WIND       PRES   REMARKS
DENVER         PTSUNNY   81  38  21 NE7       30.02R
LARAMIE        PTSUNNY   70  39  32 W3        30.17F
CHEYENNE       CLOUDY    76  39  26 N7        30.09F
SCOTTSBLUFF    MOSUNNY   83  46  27 NW5       29.94R
RAPID CITY     PTCLDY    78  51  38 E10       29.92S
PIERRE         PTCLDY    73  50  44 E10       29.92R
WINNER         FAIR      73  56  54 E10       29.93R
SIOUX FALLS    MOCLDY    73  55  53 NE6       29.93R
OMAHA          PTCLDY    77  61  57 E6        29.90R
GRAND ISLAND   CLEAR     76  64  66 E6        29.91R
KANSAS CITY    CLEAR     71  65  81 SE6       29.90S
WICHITA        PTCLDY    92  59  33 SE9       29.79F HX  91
HAYS           CLEAR     82  66  57 E12       29.85R
LIBERAL        CLOUDY    84  59  42 SW13G18   29.91R
GOODLAND       PTCLDY    79  59  50 S7        29.92F
$$



USA.gov is the U.S. government's official web portal to all federal, state and local government web resources and services.